Location: Krakow
(50.0830°N, 19.9170°E)
Time: 17:12:10
(UTC+01:00)

Vanguard 2 - Visible Passes

Search period start: 11 December 2023 00:00
Search period end: 21 December 2023 00:00
Orbit: 552 x 2923 km, 32.9° (Epoch: 10 December)

Date Brightness Start Highest point End Pass type
(mag) Time Alt. Az. Time Alt. Az. Time Alt. Az.
11 Dec 11.6 16:05:08 10° SSE 16:11:39 13° SE 16:18:26 10° ESE visible
11 Dec 11.0 18:06:41 10° SSW 18:20:20 31° SSE 18:27:29 23° ESE visible
11 Dec 10.7 20:14:42 10° WSW 20:28:42 40° S 20:28:42 40° S visible
11 Dec 11.5 22:25:36 10° WSW 22:29:55 19° WSW 22:29:55 19° WSW visible
12 Dec 11.5 16:17:11 10° S 16:26:23 18° SE 16:36:11 10° ESE visible
12 Dec 10.9 18:21:09 10° SW 18:35:24 35° SSE 18:42:04 27° SE visible
12 Dec 10.7 20:29:49 10° WSW 20:43:17 40° SSW 20:43:17 40° SSW visible
12 Dec 11.6 22:41:08 10° WSW 22:44:30 17° WSW 22:44:30 17° WSW visible
13 Dec 11.4 16:30:26 10° S 16:41:11 22° SE 16:52:53 10° E visible
13 Dec 10.8 18:35:50 10° SW 18:50:31 38° SSE 18:56:38 31° SE visible
13 Dec 10.8 20:45:04 10° WSW 20:57:51 39° SSW 20:57:51 39° SSW visible
13 Dec 11.7 22:56:49 10° W 22:59:04 14° WSW 22:59:04 14° WSW visible
14 Dec 11.2 16:44:16 10° SSW 16:56:02 27° SSE 17:09:05 10° E visible
14 Dec 10.7 18:50:43 10° SW 19:05:41 40° S 19:11:11 34° SE visible
14 Dec 10.9 21:00:24 10° WSW 21:12:24 37° SW 21:12:24 37° SW visible
14 Dec 11.8 23:12:40 10° W 23:13:37 12° WSW 23:13:37 12° WSW visible
15 Dec 11.1 16:58:31 10° SSW 17:10:58 31° SSE 17:24:31 11° E visible
15 Dec 10.7 19:05:45 10° SW 19:20:52 42° S 19:25:44 36° SE visible
15 Dec 11.0 21:15:50 10° WSW 21:26:57 34° SW 21:26:57 34° SW visible
16 Dec 11.0 17:13:03 10° SW 17:25:58 34° SSE 17:39:04 13° ESE visible
16 Dec 10.7 19:20:54 10° WSW 19:36:05 43° S 19:40:17 38° SSE visible
16 Dec 11.1 21:31:22 10° WSW 21:41:30 31° SW 21:41:30 31° SW visible
17 Dec 10.9 17:27:47 10° SW 17:41:02 37° SSE 17:53:38 16° ESE visible
17 Dec 10.7 19:36:10 10° WSW 19:51:18 42° S 19:54:51 39° SSE visible
17 Dec 11.2 21:47:02 10° W 21:56:05 27° SW 21:56:05 27° SW visible
18 Dec 10.9 17:42:43 10° SW 17:56:10 40° SSE 18:08:14 18° ESE visible
18 Dec 10.7 19:51:30 10° WSW 20:06:30 41° S 20:09:27 39° S visible
18 Dec 11.4 22:02:52 10° W 22:10:41 24° WSW 22:10:41 24° WSW visible
19 Dec 11.2 15:51:18 10° SSW 16:01:54 29° SSE 16:15:12 10° E visible
19 Dec 10.9 17:57:46 10° SW 18:11:20 41° S 18:22:52 20° ESE visible
19 Dec 10.8 20:06:56 10° WSW 20:21:40 39° SSW 20:24:05 37° S visible
19 Dec 11.5 22:18:57 10° W 22:25:19 20° WSW 22:25:19 20° WSW visible
20 Dec 11.1 16:05:53 10° SSW 16:16:52 32° SSE 16:30:55 10° ESE visible
20 Dec 10.8 18:12:56 10° WSW 18:26:32 42° S 18:37:33 21° SE visible
20 Dec 10.9 20:22:28 10° WSW 20:36:47 36° SSW 20:38:47 35° S visible
20 Dec 11.7 22:35:27 10° WSW 22:40:01 16° WSW 22:40:01 16° WSW visible
